Погода в Новой Шульбе

Казахстан     50°32′30″N   81°19′39″E
темп.,
°C
ветер,
м/с
пор.,
м/с
влажн.,
%
обл.,
%
осадки,
мм/ч
давл.,
гПа
погр.,
м
2 марта, вт
вт200:00−2ююз81497100 6.4 1018680
03:00−2ююз61297100 1.7 1018561
06:00−3юз4995100 2.6 1019357
09:00−3ююз3697100 0.3 1020303
12:00−1ююз4699100 1.1 1019427
15:000ю46100100 1.6 1017398
18:00−1ю3699100 3.6 1015326
21:00−1ююв2499100 2.9 1015200
3 марта, ср
ср300:00−4ссз579597 4.5 1016210
03:00−9зсз239599 0.1 101842
06:00−9зюз239798 0.3 102040
09:00−9зюз4795100 0.4 1022349
12:00−9зюз5789100 0.6 1023590
15:00−9зюз4787100 0.1 1024689
18:00−13ю239197 0.1 102622
21:00−15ююв33930 0.0 102827
4 марта, чт
чт400:00−15юв35922 0.0 102886
03:00−17ююв36916 0.0 102899
06:00−15ююв5108445 0.0 1029220
09:00−13ююв5118396 0.0 1028284
12:00−9ююв6108097 0.0 1028424
15:00−6ю6108143 0.0 1026530
18:00−8ююв5128253 0.0 1026300
21:00−10ююв5148188 0.0 1025289
5 марта, пт
пт500:00−12юв4118269 0.0 1024223
03:00−12юв4138392 0.0 1020303
06:00−7ююв6179196 0.9 1019702
09:00−5ююз51196100 4.4 1018622
12:00−4ююз61096100 8.2 1021730
15:00−1з7990100 0.9 1025953
18:00−4зюз4886100 1.0 1030612
21:00−9ю34925 0.0 103268
6 марта, сб
сб600:00−10ююв511883 0.0 1032208
03:00−11ююв5118959 0.0 1031236
06:00−12ююв4108960 0.0 1030189
09:00−9ю512860 0.0 1029378
12:00−4ю712869 0.0 1027565
15:00−2ю7138531 0.0 1025680
18:00−4ю5128720 0.0 1025323
21:00−8ю37892 0.0 1026121